LUCH 5A

Last updated on Sat Apr 13 2024 01:02:27 GMT+0100 (British Summer Time)

1 37951U 11074B 24103.36108715 -.00000055 00000+0 00000+0 0 9998 2 37951 6.7160 86.0076 0002952 305.6026 106.3183 1.00272983 45074
UTC large
Height (km)
Speed (km/s)
/
Latitude / Longitude
Inclination (degrees)
Orbital Period (minutes)
Azimuth
Elevation
Range (km)
Doppler Factor

Next 0 passes for location: London (51.5072 / 0.1276)

Sorry there are no passes over London.